Regional Weather Roundup
Issued by NWS State College, PA

Home | Current Version | Previous Version | Text Only | Print | Product List | Glossary On
Versions: 1 2 3 4 5 6 7 8 9 10 11 12 13 14 15 16 17 18 19 20 21 22 23 24 25 26 27 28 29 30 31 32 33 34 35 36 37 38 39 40 41 42 43 44 45 46 47 48 49 50
000
ASUS41 KCTP 262210
RWRCTP

REGIONAL WEATHER ROUNDUP
NATIONAL WEATHER SERVICE STATE COLLEGE PA
500 PM EST FRI DEC 26 2014

Note: "fair" indicates few or no clouds below 12,000 feet with no
significant weather and/or obstructions to visibility.

* = STATION THAT DOES NOT REPORT PRECIPITATION /E.G. RAIN...SNOW...ETC/
    THUNDER OR FOG.

PAZ002>004-007>009-013>016-020>023-029>032-262300-
WESTERN PENNSYLVANIA

CITY           SKY/WX    TMP DP  RH WIND       PRES   REMARKS
ERIE           CLEAR     47  31  53 S10       30.13R
MEADVILLE      CLEAR     43  31  62 S7        30.13S
FRANKLIN*      CLEAR     39  28  65 S9        30.18R
NEW CASTLE       N/A     46  33  60 CALM      30.19R
BEAVER COUNTY  CLEAR     46  32  57 S8        30.19R
BUTLER*        CLEAR     45  28  53 SW8       30.21R
PITTSBURGH INT PTCLDY    47  31  53 SW6       30.20R
PITTSBURGH     CLEAR     47  26  44 SW9       30.19R
INDIANA*       CLEAR     45  32  61 W8        30.23R
LATROBE        PTCLDY    45  32  61 SW12      30.22R
WASHINGTON CO* NOT AVBL
$$

PAZ004>006-010>012-017>019-024>028-033>037-041-042-045-046-049>053-262300-
CENTRAL PENNSYLVANIA

CITY           SKY/WX    TMP DP  RH WIND       PRES   REMARKS
BRADFORD       CLEAR     41  27  57 VRB5      30.13R
DUBOIS         CLEAR     40  29  64 SW6       30.16R
CLEARFIELD     CLEAR     43  28  55 SW6       30.17R
JOHNSTOWN      CLEAR     44  23  43 W8        30.16R
ALTOONA        CLEAR     43  30  60 S5        30.18R
STATE COLLEGE  CLEAR     43  28  56 SW5       30.18R
WILLIAMSPORT   CLEAR     38  29  70 CALM      30.19R
SELINSGROVE    CLEAR     45  29  53 SW3       30.20S
FT INDIANTOWN  CLEAR     44  30  57 SW1       30.21S
CAPITAL CITY   CLEAR     45  30  55 CALM      30.22S
HARRISBURG     PTCLDY    42  32  67 CALM      30.21F
YORK           CLEAR     40  29  64 CALM      30.22S
$$

PAZ038>040-043-044-047-048-054-055-060>062-067>071-262300-
EASTERN PENNSYLVANIA

CITY           SKY/WX    TMP DP  RH WIND       PRES   REMARKS
SCRANTON       CLEAR     42  28  57 SW6       30.18S
MOUNT POCONO   CLEAR     39  25  57 W7        30.15S
ALLENTOWN      CLEAR     41  28  60 SW9       30.21R
QUAKERTOWN*    NOT AVBL
READING        CLEAR     44  30  57 SW3       30.22R
LANCASTER      CLEAR     45  29  53 CALM      30.22S
COATESVILLE    CLEAR     45  32  61 CALM      30.23S
POTTSTOWN      CLEAR     44  30  57 CALM      30.24R
BLUE BELL      CLEAR     45  32  61 CALM      30.23R
DOYLESTOWN     CLEAR     43  30  60 SW3       30.21R
WILLOW GROVE   NOT AVBL
NORTH PHILA    CLEAR     47  28  47 W7        30.25R
PHILADELPHIA   PTCLDY    46  31  55 W8        30.25R
$$


USA.gov is the U.S. government's official web portal to all federal, state and local government web resources and services.